TimeCST,TemperatureF,Dew PointF,Humidity,Sea Level PressureIn,VisibilityMPH,Wind Direction,Wind SpeedMPH,Gust SpeedMPH,PrecipitationIn,Events,Conditions,WindDirDegrees,DateUTC
12:15 AM,28.4,24.8,86,29.92,5.0,NNW,10.4,-,N/A,,Overcast,340,2013-02-27 06:15:00
12:35 AM,28.4,24.8,86,29.92,5.0,NNW,11.5,-,N/A,,Overcast,340,2013-02-27 06:35:00
12:55 AM,28.4,24.8,86,29.92,5.0,NNW,12.7,-,N/A,,Overcast,340,2013-02-27 06:55:00
1:15 AM,28.4,24.8,86,29.93,5.0,NNW,12.7,-,N/A,,Overcast,340,2013-02-27 07:15:00
1:35 AM,28.4,24.8,86,29.93,5.0,North,12.7,-,N/A,,Overcast,350,2013-02-27 07:35:00
1:55 AM,28.4,24.8,86,29.93,5.0,North,16.1,-,N/A,,Overcast,350,2013-02-27 07:55:00
2:15 AM,28.4,24.8,86,29.94,5.0,North,15.0,-,N/A,,Overcast,350,2013-02-27 08:15:00
2:35 AM,28.4,24.8,86,29.95,5.0,NNW,11.5,-,N/A,,Overcast,340,2013-02-27 08:35:00
2:55 AM,28.4,24.8,86,29.95,4.0,NNW,9.2,-,N/A,,Overcast,330,2013-02-27 08:55:00
3:15 AM,28.4,24.8,86,29.95,5.0,NW,10.4,-,N/A,,Overcast,320,2013-02-27 09:15:00
3:35 AM,28.4,24.8,86,29.95,3.0,NW,9.2,-,N/A,,Overcast,310,2013-02-27 09:35:00
3:55 AM,28.4,24.8,86,29.95,3.0,NW,10.4,-,N/A,,Overcast,310,2013-02-27 09:55:00
4:15 AM,28.4,24.8,86,29.95,3.0,NW,11.5,-,N/A,,Overcast,310,2013-02-27 10:15:00
4:35 AM,28.4,24.8,86,29.95,3.0,NW,13.8,-,N/A,,Overcast,320,2013-02-27 10:35:00
4:55 AM,28.4,24.8,86,29.96,4.0,NW,9.2,-,N/A,,Scattered Clouds,310,2013-02-27 10:55:00
5:15 AM,28.4,24.8,86,29.96,4.0,NW,10.4,-,N/A,,Mostly Cloudy,310,2013-02-27 11:15:00
5:35 AM,28.4,24.8,86,29.96,4.0,NW,13.8,-,N/A,,Overcast,320,2013-02-27 11:35:00
5:55 AM,28.4,24.8,86,29.96,4.0,WNW,16.1,19.6,N/A,,Overcast,300,2013-02-27 11:55:00
6:15 AM,28.4,24.8,86,29.98,4.0,NW,15.0,-,N/A,,Overcast,310,2013-02-27 12:15:00
6:55 AM,26.6,23.0,86,29.99,3.0,NW,17.3,21.9,N/A,,Overcast,320,2013-02-27 12:55:00
7:15 AM,26.6,23.0,86,29.99,3.0,NW,15.0,-,N/A,,Overcast,310,2013-02-27 13:15:00
7:35 AM,26.6,23.0,86,30.00,4.0,NW,15.0,-,N/A,,Mostly Cloudy,310,2013-02-27 13:35:00
7:55 AM,26.6,23.0,86,30.00,5.0,NW,16.1,-,N/A,,Mostly Cloudy,310,2013-02-27 13:55:00
8:15 AM,26.6,21.2,80,30.01,6.0,NW,16.1,20.7,N/A,,Scattered Clouds,310,2013-02-27 14:15:00
8:35 AM,26.6,21.2,80,30.01,7.0,NW,16.1,-,N/A,,Clear,310,2013-02-27 14:35:00
8:55 AM,26.6,21.2,80,30.02,8.0,NW,16.1,20.7,N/A,,Clear,310,2013-02-27 14:55:00
9:15 AM,28.4,21.2,74,30.02,10.0,NW,18.4,-,N/A,,Partly Cloudy,320,2013-02-27 15:15:00
9:35 AM,28.4,21.2,74,30.03,10.0,NW,19.6,-,N/A,,Clear,320,2013-02-27 15:35:00
9:55 AM,28.4,19.4,69,30.05,10.0,NNW,20.7,-,N/A,,Scattered Clouds,330,2013-02-27 15:55:00
10:15 AM,28.4,19.4,69,30.05,6.0,NNW,27.6,35.7,N/A,,Overcast,340,2013-02-27 16:15:00
10:35 AM,26.6,19.4,74,30.05,9.0,NNW,20.7,27.6,N/A,,Overcast,330,2013-02-27 16:35:00
10:55 AM,28.4,19.4,69,30.05,10.0,NNW,18.4,-,N/A,,Overcast,330,2013-02-27 16:55:00
11:15 AM,28.4,21.2,74,30.06,10.0,NNW,21.9,27.6,N/A,,Overcast,330,2013-02-27 17:15:00
11:35 AM,28.4,21.2,74,30.07,10.0,NNW,24.2,28.8,N/A,,Overcast,330,2013-02-27 17:35:00
11:55 AM,30.2,21.2,69,30.06,10.0,NW,23.0,-,N/A,,Overcast,320,2013-02-27 17:55:00
12:15 PM,30.2,21.2,69,30.07,9.0,NNW,23.0,31.1,N/A,,Overcast,330,2013-02-27 18:15:00
12:35 PM,30.2,21.2,69,30.07,10.0,NNW,20.7,28.8,N/A,,Mostly Cloudy,330,2013-02-27 18:35:00
12:55 PM,30.2,21.2,69,30.07,10.0,NNW,23.0,32.2,N/A,,Partly Cloudy,330,2013-02-27 18:55:00
1:15 PM,32.0,21.2,64,30.08,10.0,NNW,18.4,27.6,N/A,,Clear,330,2013-02-27 19:15:00
1:35 PM,33.8,21.2,60,30.08,10.0,NW,19.6,26.5,N/A,,Clear,320,2013-02-27 19:35:00
1:55 PM,33.8,21.2,60,30.08,10.0,NW,23.0,27.6,N/A,,Clear,320,2013-02-27 19:55:00
2:15 PM,33.8,23.0,65,30.08,10.0,NW,18.4,25.3,N/A,,Clear,320,2013-02-27 20:15:00
2:35 PM,33.8,23.0,65,30.09,10.0,NW,23.0,26.5,N/A,,Clear,320,2013-02-27 20:35:00
2:55 PM,35.6,23.0,60,30.09,10.0,NW,19.6,-,N/A,,Clear,320,2013-02-27 20:55:00
3:15 PM,35.6,23.0,60,30.09,10.0,NW,19.6,24.2,N/A,,Clear,320,2013-02-27 21:15:00
3:35 PM,35.6,23.0,60,30.09,10.0,NW,24.2,28.8,N/A,,Clear,320,2013-02-27 21:35:00
3:55 PM,35.6,23.0,60,30.09,10.0,NW,17.3,24.2,N/A,,Clear,320,2013-02-27 21:55:00
4:15 PM,35.6,23.0,60,30.09,10.0,NW,20.7,26.5,N/A,,Clear,310,2013-02-27 22:15:00
4:35 PM,35.6,23.0,60,30.09,10.0,NW,23.0,27.6,N/A,,Clear,320,2013-02-27 22:35:00
4:55 PM,35.6,23.0,60,30.10,10.0,NW,21.9,27.6,N/A,,Clear,320,2013-02-27 22:55:00
5:15 PM,35.6,23.0,60,30.11,10.0,NW,20.7,-,N/A,,Clear,310,2013-02-27 23:15:00
5:35 PM,35.6,23.0,60,30.11,10.0,NW,18.4,24.2,N/A,,Clear,310,2013-02-27 23:35:00
5:55 PM,33.8,23.0,65,30.12,10.0,NW,18.4,24.2,N/A,,Clear,310,2013-02-27 23:55:00
6:15 PM,33.8,23.0,65,30.13,10.0,NW,17.3,23.0,N/A,,Clear,310,2013-02-28 00:15:00
6:35 PM,33.8,24.8,70,30.13,10.0,NW,18.4,25.3,N/A,,Clear,310,2013-02-28 00:35:00
6:55 PM,33.8,24.8,70,30.13,10.0,NW,17.3,-,N/A,,Clear,320,2013-02-28 00:55:00
7:15 PM,33.8,24.8,70,30.13,10.0,NW,17.3,23.0,N/A,,Clear,320,2013-02-28 01:15:00
7:35 PM,33.8,23.0,65,30.14,10.0,NW,17.3,23.0,N/A,,Clear,320,2013-02-28 01:35:00
8:15 PM,32.0,23.0,69,30.15,10.0,NW,13.8,-,N/A,,Clear,320,2013-02-28 02:15:00
8:35 PM,30.2,23.0,75,30.16,10.0,NW,12.7,-,N/A,,Clear,310,2013-02-28 02:35:00
8:55 PM,30.2,21.2,69,30.15,10.0,NW,16.1,-,N/A,,Clear,320,2013-02-28 02:55:00
9:15 PM,30.2,23.0,75,30.15,10.0,NW,15.0,-,N/A,,Clear,320,2013-02-28 03:15:00
9:35 PM,30.2,23.0,75,30.16,10.0,NW,12.7,-,N/A,,Clear,320,2013-02-28 03:35:00
9:55 PM,30.2,23.0,75,30.16,10.0,NW,12.7,-,N/A,,Clear,320,2013-02-28 03:55:00
10:35 PM,30.2,21.2,69,30.16,10.0,NW,11.5,-,N/A,,Clear,320,2013-02-28 04:35:00
10:55 PM,28.4,21.2,74,30.16,10.0,NW,9.2,-,N/A,,Clear,310,2013-02-28 04:55:00
11:15 PM,28.4,19.4,69,30.16,10.0,WNW,10.4,-,N/A,,Clear,290,2013-02-28 05:15:00
11:35 PM,26.6,21.2,80,30.16,10.0,WNW,8.1,-,N/A,,Clear,300,2013-02-28 05:35:00